Location: *
(49.9853°N, 3.5569°E)
Time: 08:00:14
(UTC+00:00)

Cosmos 1605 Rocket - Pass Details

Date: 22 September 2019
Orbit: 945 x 1005 km, 82.9° (Epoch: 18 October)

Event Time Altitude Azimuth Distance (km) Brightness Sun altitude
Rises 20:32:59 0° 353° (N) 3,744 7.7 -26.2°
Reaches altitude 10° 20:35:39 10° 358° (N) 2,786 6.8 -26.5°
Enters shadow 20:41:34 50° 65° (ENE) 1,254 4.3 -27.3°
